• In Moldova, Republic
  • List of Countries
  • For 7 days
  • Water Temperature
  • Satellite Maps
  • Weather Map
  • Weather Widgets
  • user-avatar
    Login

    Hourly Weather Satif

    Today, 24 September, Monday

    Time Temperature Precipitation Wind Pressure Humidity
    00:00 +19°C° 0 mm 0 mps 677 mmHg 59%
    01:00 +19°C° 0 mm 0 mps 677 mmHg 60%
    02:00 +18°C° 0 mm 0 mps 676 mmHg 61%
    03:00 +18°C° 0 mm 0 mps 676 mmHg 61%
    04:00 +18°C° 0 mm 0 mps 676 mmHg 61%
    05:00 +18°C° 0 mm 0 mps 676 mmHg 61%
    06:00 +18°C° 0 mm 0 mps 676 mmHg 60%
    07:00 +21°C° 0 mm 1 mps 677 mmHg 53%
    08:00 +23°C° 0 mm 1 mps 677 mmHg 46%
    09:00 +24°C° 0 mm 2 mps 678 mmHg 38%
    10:00 +25°C° 0 mm 2 mps 678 mmHg 36%
    11:00 +26°C° 0 mm 2 mps 678 mmHg 35%
    12:00 +27°C° 0 mm 2 mps 678 mmHg 33%
    13:00 +27°C° 0 mm 2 mps 678 mmHg 33%
    14:00 +27°C° 0 mm 2 mps 677 mmHg 34%
    15:00 +27°C° 0 mm 3 mps 677 mmHg 35%
    16:00 +26°C° 0 mm 3 mps 677 mmHg 40%
    17:00 +25°C° 0 mm 3 mps 677 mmHg 45%
    18:00 +24°C° 0 mm 3 mps 677 mmHg 50%
    19:00 +22°C° 0 mm 3 mps 677 mmHg 55%
    20:00 +23°C° 0 mm 2 mps 677 mmHg 60%
    21:00 +21°C° 0 mm 2 mps 677 mmHg 65%
    22:00 +21°C° 0 mm 2 mps 677 mmHg 68%
    23:00 +20°C° 0 mm 2 mps 677 mmHg 72%

    Tomorrow, 25 September, Tuesday

    Time Temperature Precipitation Wind Pressure Humidity
    00:00 +21°C° 0 mm 1 mps 677 mmHg 75%
    01:00 +20°C° 0 mm 1 mps 677 mmHg 77%
    02:00 +20°C° 0 mm 1 mps 676 mmHg 80%
    03:00 +19°C° 0 mm 1 mps 676 mmHg 82%
    04:00 +19°C° 0 mm 1 mps 676 mmHg 83%
    05:00 +19°C° 0 mm 1 mps 676 mmHg 84%
    06:00 +19°C° 0 mm 1 mps 676 mmHg 85%
    07:00 +20°C° 0 mm 1 mps 677 mmHg 79%
    08:00 +21°C° 0 mm 1 mps 677 mmHg 73%
    09:00 +22°C° 0 mm 1 mps 678 mmHg 67%
    10:00 +23°C° 0 mm 2 mps 678 mmHg 60%
    11:00 +24°C° 0 mm 2 mps 678 mmHg 54%
    12:00 +25°C° 0 mm 2 mps 678 mmHg 48%
    13:00 +25°C° 0 mm 2 mps 678 mmHg 47%
    14:00 +26°C° 0 mm 3 mps 678 mmHg 47%
    15:00 +26°C° 0 mm 3 mps 677 mmHg 46%
    16:00 +25°C° 0 mm 3 mps 677 mmHg 53%
    17:00 +24°C° 0 mm 3 mps 677 mmHg 59%
    18:00 +22°C° 0 mm 3 mps 677 mmHg 65%
    19:00 +21°C° 0.1 mm 3 mps 677 mmHg 69%
    20:00 +20°C° 0.1 mm 3 mps 677 mmHg 73%
    21:00 +19°C° 0.1 mm 2 mps 678 mmHg 76%
    22:00 +19°C° 0 mm 2 mps 677 mmHg 78%
    23:00 +19°C° 0 mm 2 mps 677 mmHg 79%

    Day after tomorrow, 26 September, Wednesday

    Time Temperature Precipitation Wind Pressure Humidity
    00:00 +18°C° 0 mm 2 mps 677 mmHg 81%
    01:00 +18°C° 0 mm 2 mps 677 mmHg 82%
    02:00 +19°C° 0 mm 1 mps 677 mmHg 83%
    03:00 +18°C° 0 mm 1 mps 677 mmHg 84%
    04:00 +18°C° 0 mm 1 mps 677 mmHg 84%
    05:00 +18°C° 0 mm 1 mps 677 mmHg 84%
    06:00 +18°C° 0 mm 1 mps 677 mmHg 85%
    07:00 +19°C° 0 mm 1 mps 678 mmHg 76%
    08:00 +19°C° 0 mm 2 mps 678 mmHg 67%
    09:00 +20°C° 0 mm 2 mps 679 mmHg 59%
    10:00 +23°C° 0 mm 2 mps 679 mmHg 55%
    11:00 +24°C° 0 mm 2 mps 679 mmHg 50%
    12:00 +25°C° 0 mm 3 mps 679 mmHg 46%
    13:00 +25°C° 0 mm 3 mps 679 mmHg 46%
    14:00 +25°C° 0 mm 3 mps 679 mmHg 45%
    15:00 +25°C° 0 mm 3 mps 679 mmHg 45%
    16:00 +23°C° 0.2 mm 4 mps 679 mmHg 51%
    17:00 +22°C° 0.2 mm 4 mps 678 mmHg 56%
    18:00 +21°C° 0.2 mm 4 mps 678 mmHg 62%
    19:00 +21°C° 0.5 mm 4 mps 679 mmHg 66%
    20:00 +20°C° 0.5 mm 4 mps 679 mmHg 70%
    21:00 +20°C° 0.5 mm 3 mps 679 mmHg 74%
    22:00 +19°C° 0 mm 3 mps 679 mmHg 76%
    23:00 +19°C° 0 mm 3 mps 679 mmHg 77%

    27 September, Thursday

    Time Temperature Precipitation Wind Pressure Humidity
    00:00 +19°C° 0 mm 3 mps 679 mmHg 79%
    01:00 +18°C° 0 mm 3 mps 679 mmHg 79%
    02:00 +18°C° 0 mm 2 mps 679 mmHg 80%
    03:00 +18°C° 0 mm 2 mps 679 mmHg 81%
    04:00 +19°C° 0 mm 1 mps 679 mmHg 81%
    05:00 +19°C° 0 mm 1 mps 679 mmHg 82%
    06:00 +19°C° 0 mm 1 mps 679 mmHg 82%
    07:00 +20°C° 0 mm 1 mps 679 mmHg 76%
    08:00 +21°C° 0 mm 1 mps 680 mmHg 71%
    09:00 +22°C° 0 mm 1 mps 680 mmHg 65%
    10:00 +22°C° 0 mm 1 mps 680 mmHg 61%
    11:00 +23°C° 0 mm 1 mps 680 mmHg 57%
    12:00 +24°C° 0 mm 1 mps 680 mmHg 53%
    13:00 +24°C° 0.1 mm 1 mps 680 mmHg 52%
    14:00 +25°C° 0.1 mm 2 mps 679 mmHg 51%
    15:00 +25°C° 0.1 mm 2 mps 679 mmHg 50%
    16:00 +24°C° 0.1 mm 2 mps 679 mmHg 53%
    17:00 +24°C° 0.1 mm 2 mps 678 mmHg 56%
    18:00 +23°C° 0.1 mm 2 mps 678 mmHg 59%
    19:00 +21°C° 0 mm 2 mps 678 mmHg 62%
    20:00 +21°C° 0 mm 2 mps 678 mmHg 65%
    21:00 +21°C° 0 mm 1 mps 678 mmHg 67%
    22:00 +21°C° 0 mm 1 mps 678 mmHg 69%
    23:00 +20°C° 0 mm 1 mps 677 mmHg 71%

    28 September, Friday

    Time Temperature Precipitation Wind Pressure Humidity
    00:00 +20°C° 0 mm 1 mps 677 mmHg 72%
    01:00 +20°C° 0 mm 1 mps 676 mmHg 74%
    02:00 +19°C° 0 mm 1 mps 676 mmHg 76%
    03:00 +19°C° 0 mm 1 mps 675 mmHg 79%
    04:00 +18°C° 0 mm 1 mps 675 mmHg 80%
    05:00 +18°C° 0 mm 1 mps 675 mmHg 81%
    06:00 +18°C° 0 mm 1 mps 675 mmHg 83%
    07:00 +19°C° 0 mm 1 mps 676 mmHg 75%
    08:00 +20°C° 0 mm 1 mps 676 mmHg 68%
    09:00 +21°C° 0 mm 1 mps 677 mmHg 61%
    10:00 +21°C° 0 mm 2 mps 676 mmHg 54%
    11:00 +23°C° 0 mm 2 mps 676 mmHg 48%
    12:00 +25°C° 0 mm 2 mps 676 mmHg 41%
    13:00 +25°C° 0 mm 3 mps 676 mmHg 40%
    14:00 +25°C° 0 mm 3 mps 676 mmHg 39%
    15:00 +25°C° 0 mm 3 mps 675 mmHg 39%
    16:00 +24°C° 0 mm 3 mps 675 mmHg 43%
    17:00 +22°C° 0 mm 3 mps 675 mmHg 48%
    18:00 +21°C° 0 mm 3 mps 675 mmHg 53%
    19:00 +20°C° 0 mm 2 mps 675 mmHg 57%
    20:00 +19°C° 0 mm 2 mps 675 mmHg 61%
    21:00 +20°C° 0 mm 1 mps 675 mmHg 64%
    22:00 +19°C° 0 mm 1 mps 675 mmHg 66%
    23:00 +19°C° 0 mm 1 mps 674 mmHg 68%

    29 September, Saturday

    Time Temperature Precipitation Wind Pressure Humidity
    00:00 +17°C° 0 mm 0 mps 674 mmHg 70%
    01:00 +16°C° 0 mm 0 mps 674 mmHg 71%
    02:00 +16°C° 0 mm 0 mps 673 mmHg 72%
    03:00 +15°C° 0 mm 0 mps 673 mmHg 73%
    04:00 +15°C° 0 mm 0 mps 673 mmHg 73%
    05:00 +15°C° 0 mm 0 mps 673 mmHg 73%
    06:00 +15°C° 0 mm 0 mps 673 mmHg 73%
    07:00 +17°C° 0 mm 0 mps 674 mmHg 64%
    08:00 +20°C° 0 mm 1 mps 675 mmHg 56%
    09:00 +22°C° 0 mm 1 mps 675 mmHg 47%
    10:00 +23°C° 0 mm 1 mps 675 mmHg 42%
    11:00 +24°C° 0 mm 2 mps 675 mmHg 36%
    12:00 +26°C° 0 mm 2 mps 675 mmHg 30%
    13:00 +26°C° 0 mm 2 mps 675 mmHg 30%
    14:00 +26°C° 0 mm 3 mps 675 mmHg 31%
    15:00 +26°C° 0 mm 3 mps 675 mmHg 31%
    16:00 +25°C° 0 mm 2 mps 675 mmHg 35%
    17:00 +24°C° 0 mm 2 mps 675 mmHg 40%
    18:00 +23°C° 0 mm 1 mps 674 mmHg 45%
    19:00 +22°C° 0 mm 1 mps 675 mmHg 48%
    20:00 +22°C° 0 mm 1 mps 675 mmHg 50%
    21:00 +19°C° 0 mm 0 mps 675 mmHg 53%
    22:00 +21°C° 0 mm 1 mps 675 mmHg 53%
    23:00 +21°C° 0 mm 1 mps 675 mmHg 54%
    Show more